Location: Navajo Flats
(35.4008°N, 120.2808°W)
Time: 08:48:57
(UTC-08:00)

N. Korean satellite - Visible Passes

Search period start: 02 December 2020 00:00
Search period end: 12 December 2020 00:00
Orbit: 453 x 503 km, 97.2° (Epoch: 01 December)

Date Brightness Start Highest point End Pass type
(mag) Time Alt. Az. Time Alt. Az. Time Alt. Az.
02 Dec 7.7 05:09:56 10° NNE 05:13:27 47° E 05:17:00 10° S visible
02 Dec 8.5 17:15:20 10° SSW 17:18:26 33° W 17:21:35 10° NNW visible
03 Dec 9.3 04:44:15 10° NE 04:47:04 21° E 04:49:52 10° SE visible
03 Dec 7.9 06:17:33 10° NNW 06:20:14 20° WNW 06:22:56 10° WSW visible
04 Dec 6.9 05:50:35 10° N 05:54:03 43° WNW 05:57:32 10° SSW visible
05 Dec 6.7 05:24:06 10° NNE 05:27:46 78° ESE 05:31:26 10° S visible
05 Dec 9.4 17:30:04 10° SSW 17:32:43 21° W 17:35:26 10° NW visible
06 Dec 8.5 04:58:04 10° NNE 05:01:23 32° E 05:04:42 10° SSE visible
07 Dec 9.8 04:32:46 10° ENE 04:34:54 15° E 04:37:01 10° SE visible
07 Dec 7.5 06:05:04 10° NNW 06:08:13 27° WNW 06:11:22 10° SW visible
08 Dec 6.5 05:38:18 10° N 05:41:57 65° WNW 05:45:36 10° SSW visible
08 Dec 9.8 17:45:10 10° SW 17:46:59 14° W 17:48:50 10° WNW visible
09 Dec 7.5 05:12:00 10° NNE 05:15:35 51° E 05:19:11 10° S visible
09 Dec 8.7 17:17:22 10° SSW 17:20:27 31° W 17:23:36 10° NNW visible
10 Dec 9.1 04:46:11 10° NE 04:49:08 22° E 04:52:04 10° SSE visible
10 Dec 8.0 06:19:40 10° NNW 06:22:16 19° WNW 06:24:52 10° WSW visible
11 Dec 10.2 04:22:14 10° E 04:22:34 10° E 04:22:53 10° E visible
11 Dec 7.0 05:52:33 10° N 05:56:01 40° WNW 05:59:29 10° SW visible
